Weather History for KOLS - February, 2014

Change the Weather History Date:

Sunday, February 16, 2014

  Actual Average (KTUS) Record (KTUS)
Temperature  
Mean Temperature 64 °F 55 °F  
Max Temperature 82 °F 69 °F 85 °F (1994)
Min Temperature 46 °F 42 °F 21 °F (1910)
Degree Days  
Heating Degree Days 1 10  
Month to date heating degree days 168  
Since 1 July heating degree days 1162  
Cooling Degree Days 0 0  
Month to date cooling degree days 0  
Year to date cooling degree days 1  
Growing Degree Days 14 (Base 50)    
Moisture  
Dew Point 15 °F    
Average Humidity 18    
Maximum Humidity 33    
Minimum Humidity 7    
Precipitation  
Precipitation 0.00 in 0.03 in 0.38 in (1911)
Month to date precipitation 0.50  
Year to date precipitation 1.44  
Sea Level Pressure  
Sea Level Pressure 29.97 in    
Wind  
Wind Speed 3 mph (ENE)    
Max Wind Speed 12 mph    
Max Gust Speed 17 mph    
T = Trace of Precipitation, MM = Missing Value Source: NWS Daily Summary

Daily Weather History Graph

Daily Weather History Graph

Search for Another Location

Airport or City:

Trip Planner

Search our weather history database for the weather conditions in past years. The results will help you decide how hot, cold, wet, or windy it might be!

Date:

Astronomy

Feb. 16, 2014 Rise Set
Actual Time 7:03 AM MST 6:11 PM MST
Civil Twilight 6:39 AM MST 6:36 PM MST
Nautical Twilight 6:10 AM MST 7:04 PM MST
Astronomical Twilight 5:42 AM MST 7:32 PM MST
Moon 8:00 PM MST (2/16) 7:44 AM MST (2/16)
Length of Visible Light 11h 57m
Length of Day
11h 07m
Full, 97% of the Moon is Illuminated
Feb 16
Full
Feb 22
Last Quarter
Mar 1
New
Mar 8
First Quarter
Mar 16
Full

Hourly Weather History & Observations

Time (MST) Temp. Dew Point Humidity Pressure Visibility Wind Dir Wind Speed Gust Speed Precip Events Conditions
12:54 AM 54.0 °F 16.0 °F 22% 29.96 in - Calm Calm - N/A   Clear
1:54 AM 52.0 °F 17.1 °F 25% 29.96 in - NE 6.9 mph - N/A   Clear
2:54 AM 53.1 °F 17.1 °F 24% 29.95 in - Calm Calm - N/A   Clear
3:54 AM 48.0 °F 17.1 °F 29% 29.95 in - NE 5.8 mph - N/A   Clear
4:54 AM 46.9 °F 18.0 °F 32% 29.94 in - NE 4.6 mph - N/A   Clear
5:54 AM 46.0 °F 17.1 °F 31% 29.96 in - Calm Calm - N/A   Clear
6:54 AM 46.0 °F 18.0 °F 33% 30.00 in - Calm Calm - N/A   Clear
7:54 AM 48.0 °F 18.0 °F 30% 30.02 in - Calm Calm - N/A   Clear
8:54 AM 57.0 °F 19.0 °F 23% 30.03 in - Calm Calm - N/A   Clear
9:54 AM 66.0 °F 19.0 °F 17% 30.02 in - SSW 3.5 mph - N/A   Clear
10:54 AM 75.0 °F 18.0 °F 12% 29.99 in - South 4.6 mph - N/A   Clear
11:54 AM 75.9 °F 14.0 °F 10% 29.98 in - ESE 3.5 mph - N/A   Clear
12:54 PM 80.1 °F 15.1 °F 9% 29.95 in - Calm Calm - N/A   Clear
1:54 PM 82.0 °F 10.0 °F 7% 29.92 in - SW 11.5 mph - N/A   Clear
2:54 PM 82.0 °F 10.9 °F 7% 29.90 in - West 6.9 mph 17.3 mph N/A   Clear
3:54 PM 81.0 °F 10.9 °F 7% 29.91 in - West 10.4 mph 17.3 mph N/A   Clear
4:54 PM 80.1 °F 10.0 °F 7% 29.92 in - West 10.4 mph - N/A   Clear
5:54 PM 75.0 °F 10.0 °F 8% 29.95 in - WNW 6.9 mph - N/A   Clear
6:54 PM 64.9 °F 12.0 °F 13% 29.99 in - ENE 3.5 mph - N/A   Clear
7:54 PM 60.1 °F 12.9 °F 16% 30.01 in - East 3.5 mph - N/A   Clear
8:54 PM 60.1 °F 14.0 °F 16% 30.01 in - Calm Calm - N/A   Clear
9:54 PM 59.0 °F 15.1 °F 18% 30.00 in - ENE 6.9 mph - N/A   Clear
10:54 PM 55.9 °F 16.0 °F 21% 30.00 in - NE 8.1 mph - N/A   Clear
11:54 PM 54.0 °F 15.1 °F 22% 30.00 in - Calm Calm - N/A   Clear